| time (UTC) | temp F | wind direction | speed MPH | gust MPH | rain 1hr in | rain 24hr in | rain mn in | humidity % | barometer mb |
| 20260905073916 | 76 | 270 | 0.0 | 4.0 | 0.00 | 0.00 | 0.00 | 58 | 943.0 |
| 20260905073428 | 76 | 270 | 0.0 | 4.0 | 0.00 | 0.00 | 0.00 | 57 | 944.0 |
| 20260905072916 | 76 | 270 | 0.0 | 0.0 | 0.00 | 0.00 | 0.00 | 57 | 944.0 |
| 20260905072423 | 76 | 248 | 0.0 | 0.0 | 0.00 | 0.00 | 0.00 | 57 | 943.0 |
| 20260905071916 | 76 | 292 | 0.0 | 0.0 | 0.00 | 0.00 | 0.00 | 58 | 944.0 |
| 20260905071416 | 76 | 292 | 0.0 | 0.0 | 0.00 | 0.00 | 0.00 | 58 | 944.0 |
| 20260905070942 | 76 | 292 | 0.0 | 2.0 | 0.00 | 0.00 | 0.00 | 57 | 944.0 |
| 20260905070417 | 76 | 292 | 0.0 | 2.0 | 0.00 | 0.00 | 0.00 | 58 | 944.0 |
| 20260905065936 | 76 | 270 | 0.0 | 2.0 | 0.00 | 0.00 | 0.00 | 58 | 944.0 |
| 20260905065417 | 76 | 292 | 0.0 | 2.0 | 0.00 | 9.83 | 0.00 | 58 | 944.0 |
| 20260905064919 | 76 | 225 | 2.0 | 2.0 | 0.00 | 0.00 | 0.00 | 59 | 944.0 |
| 20260905064416 | 76 | 248 | 0.0 | 2.0 | 0.00 | 0.00 | 0.00 | 59 | 944.0 |
| 20260905063916 | 76 | 0 | 0.0 | 2.0 | 0.00 | 0.00 | 0.00 | 60 | 944.0 |
| 20260905063416 | 76 | 292 | 0.0 | 2.0 | 0.00 | 0.00 | 0.00 | 61 | 944.0 |
| 20260905062916 | 76 | 292 | 2.0 | 2.0 | 0.00 | 0.00 | 0.00 | 62 | 944.0 |
| 20260905062416 | 75 | 270 | 0.0 | 3.0 | 0.00 | 0.00 | 0.00 | 62 | 944.0 |
| 20260905061917 | 75 | 270 | 0.0 | 4.0 | 0.00 | 0.00 | 0.00 | 63 | 944.0 |
| 20260905061443 | 74 | 270 | 0.0 | 4.0 | 0.00 | 0.00 | 0.00 | 64 | 944.0 |
| 20260905060916 | 74 | 270 | 3.0 | 4.0 | 0.00 | 0.00 | 0.00 | 64 | 944.0 |
| 20260905060439 | 73 | 292 | 0.0 | 1.0 | 0.00 | 0.00 | 0.00 | 65 | 944.0 |
| 20260905055917 | 72 | 270 | 0.0 | 0.0 | 0.00 | 0.00 | 0.00 | 66 | 944.0 |
| 20260905055421 | 71 | 315 | 0.0 | 2.0 | 0.00 | 0.00 | 0.00 | 67 | 944.0 |
| 20260905054917 | 70 | 270 | 0.0 | 2.0 | 0.00 | 0.00 | 0.00 | 67 | 944.0 |
| 20260905054416 | 70 | 270 | 0.0 | 2.0 | 0.00 | 0.00 | 0.00 | 68 | 944.0 |
| 20260905053917 | 70 | 292 | 0.0 | 2.0 | 0.00 | 0.00 | 0.00 | 68 | 944.0 |
| 20260905053416 | 69 | 248 | 0.0 | 2.0 | 0.00 | 0.00 | 0.00 | 69 | 944.0 |
| 20260905052936 | 69 | 248 | 0.0 | 2.0 | 0.00 | 0.00 | 0.00 | 69 | 944.0 |
| 20260905052416 | 68 | 225 | 0.0 | 2.0 | 0.00 | 0.00 | 0.00 | 70 | 944.0 |
| 20260905051928 | 68 | 270 | 0.0 | 2.0 | 0.00 | 0.00 | 0.00 | 70 | 944.0 |
| 20260905051416 | 67 | 270 | 0.0 | 0.0 | 0.00 | 0.00 | 0.00 | 71 | 944.0 |
| 20260905050916 | 67 | 270 | 0.0 | 0.0 | 0.00 | 0.00 | 0.00 | 72 | 944.0 |
| 20260905050415 | 65 | 270 | 0.0 | 0.0 | 0.00 | 0.00 | 0.00 | 73 | 944.0 |
| 20260905045917 | 65 | 270 | 0.0 | 0.0 | 0.00 | 0.00 | 0.00 | 73 | 944.0 |
| 20260905045440 | 64 | 248 | 0.0 | 0.0 | 0.00 | 0.00 | 0.00 | 73 | 944.0 |
| 20260905044917 | 63 | 248 | 0.0 | 0.0 | 0.00 | 0.00 | 0.00 | 74 | 944.0 |
| 20260905044423 | 63 | 248 | 0.0 | 0.0 | 0.00 | 0.00 | 0.00 | 74 | 944.0 |
| 20260905043916 | 62 | 248 | 0.0 | 0.0 | 0.00 | 0.00 | 0.00 | 74 | 944.0 |
| 20260905043415 | 62 | 248 | 0.0 | 0.0 | 0.00 | 0.00 | 0.00 | 74 | 944.0 |
| 20260905042917 | 61 | 248 | 0.0 | 0.0 | 0.00 | 0.00 | 0.00 | 74 | 944.0 |
| 20260905042416 | 61 | 248 | 0.0 | 0.0 | 0.00 | 0.00 | 0.00 | 74 | 944.0 |
| 20260905041935 | 61 | 248 | 0.0 | 0.0 | 0.00 | 0.00 | 0.00 | 74 | 944.0 |
| 20260905041417 | 61 | 248 | 0.0 | 0.0 | 0.00 | 0.00 | 0.00 | 74 | 944.0 |
| 20260905040919 | 61 | 248 | 0.0 | 0.0 | 0.00 | 0.00 | 0.00 | 74 | 944.0 |
| 20260905040416 | 60 | 248 | 0.0 | 0.0 | 0.00 | 0.00 | 0.00 | 74 | 944.0 |
| 20260905035916 | 60 | 248 | 0.0 | 0.0 | 0.00 | 0.00 | 0.00 | 74 | 944.0 |
| 20260905035416 | 60 | 248 | 0.0 | 0.0 | 0.00 | 0.00 | 0.00 | 74 | 944.0 |
| 20260905034915 | 60 | 248 | 0.0 | 0.0 | 0.00 | 0.00 | 0.00 | 74 | 944.0 |
| 20260905034432 | 61 | 248 | 0.0 | 0.0 | 0.00 | 0.00 | 0.00 | 74 | 944.0 |
| 20260905033915 | 61 | 248 | 0.0 | 0.0 | 0.00 | 0.00 | 0.00 | 74 | 943.0 |
| 20260905033424 | 61 | 248 | 0.0 | 0.0 | 0.00 | 0.00 | 0.00 | 74 | 944.0 |
| 20260905032917 | 61 | 248 | 0.0 | 0.0 | 0.00 | 0.00 | 0.00 | 74 | 944.0 |
| 20260905032416 | 61 | 248 | 0.0 | 0.0 | 0.00 | 0.00 | 0.00 | 74 | 944.0 |
| 20260905031941 | 61 | 248 | 0.0 | 0.0 | 0.00 | 0.00 | 0.00 | 74 | 944.0 |
| 20260905031415 | 61 | 248 | 0.0 | 0.0 | 0.00 | 0.00 | 0.00 | 74 | 944.0 |
| 20260905030936 | 61 | 248 | 0.0 | 0.0 | 0.00 | 0.00 | 0.00 | 74 | 944.0 |
| 20260905030416 | 61 | 248 | 0.0 | 0.0 | 0.00 | 0.00 | 0.00 | 74 | 944.0 |
| 20260905025921 | 61 | 248 | 0.0 | 0.0 | 0.00 | 0.00 | 0.00 | 74 | 944.0 |
| 20260905025416 | 61 | 248 | 0.0 | 0.0 | 0.00 | 0.00 | 0.00 | 74 | 943.0 |
| 20260905024915 | 61 | 248 | 0.0 | 0.0 | 0.00 | 0.00 | 0.00 | 74 | 944.0 |
| 20260905024417 | 61 | 248 | 0.0 | 0.0 | 0.00 | 0.00 | 0.00 | 74 | 944.0 |
| 20260905023916 | 61 | 248 | 0.0 | 4.0 | 0.00 | 0.00 | 0.00 | 74 | 944.0 |
| 20260905023434 | 61 | 270 | 0.0 | 4.0 | 0.00 | 0.00 | 0.00 | 74 | 944.0 |
| 20260905022915 | 61 | 248 | 4.0 | 4.0 | 0.00 | 0.00 | 0.00 | 74 | 944.0 |
| 20260905022429 | 61 | 248 | 0.0 | 1.0 | 0.00 | 0.00 | 0.00 | 74 | 944.0 |
| 20260905021915 | 61 | 248 | 0.0 | 1.0 | 0.00 | 0.00 | 0.00 | 74 | 944.0 |
| 20260905021416 | 61 | 248 | 0.0 | 0.0 | 0.00 | 0.00 | 0.00 | 74 | 944.0 |
| 20260905020916 | 61 | 248 | 0.0 | 0.0 | 0.00 | 0.00 | 0.00 | 74 | 944.0 |
| 20260905020415 | 61 | 248 | 0.0 | 0.0 | 0.00 | 0.00 | 0.00 | 74 | 944.0 |
| 20260905015942 | 61 | 248 | 0.0 | 0.0 | 0.00 | 0.00 | 0.00 | 73 | 944.0 |
| 20260905015416 | 61 | 248 | 0.0 | 0.0 | 0.00 | 0.00 | 0.00 | 73 | 944.0 |
| 20260905014926 | 61 | 248 | 0.0 | 0.0 | 0.00 | 0.00 | 0.00 | 73 | 944.0 |
| 20260905014415 | 61 | 248 | 0.0 | 0.0 | 0.00 | 0.00 | 0.00 | 73 | 944.0 |
| 20260905013916 | 61 | 248 | 0.0 | 2.0 | 0.00 | 0.00 | 0.00 | 73 | 944.0 |
| 20260905013416 | 61 | 248 | 0.0 | 2.0 | 0.00 | 0.00 | 0.00 | 73 | 944.0 |
| 20260905012916 | 61 | 248 | 0.0 | 2.0 | 0.00 | 0.00 | 0.00 | 72 | 944.0 |
| 20260905012439 | 61 | 248 | 0.0 | 2.0 | 0.00 | 0.00 | 0.00 | 72 | 944.0 |
| 20260905011917 | 61 | 248 | 0.0 | 2.0 | 0.00 | 0.00 | 0.00 | 71 | 944.0 |
| 20260905011424 | 62 | 248 | 2.0 | 2.0 | 0.00 | 0.00 | 0.00 | 71 | 944.0 |
| 20260905010916 | 62 | 248 | 0.0 | 2.0 | 0.00 | 0.00 | 0.00 | 71 | 944.0 |
| 20260905010417 | 62 | 248 | 2.0 | 2.0 | 0.00 | 0.00 | 0.00 | 70 | 944.0 |
| 20260905005916 | 62 | 248 | 0.0 | 3.0 | 0.00 | 0.00 | 0.00 | 70 | 944.0 |
| 20260905005416 | 62 | 248 | 0.0 | 3.0 | 0.00 | 0.00 | 0.00 | 69 | 944.0 |
| 20260905004938 | 62 | 248 | 0.0 | 3.0 | 0.00 | 9.83 | 0.00 | 69 | 944.0 |
| 20260905004415 | 63 | 248 | 3.0 | 3.0 | 0.00 | 0.00 | 0.00 | 68 | 944.0 |
| 20260905003932 | 63 | 248 | 2.0 | 2.0 | 0.00 | 0.00 | 0.00 | 68 | 944.0 |
| 20260905003416 | 63 | 248 | 0.0 | 0.0 | 0.00 | 0.00 | 0.00 | 68 | 944.0 |
| 20260905002917 | 63 | 292 | 0.0 | 0.0 | 0.00 | 0.00 | 0.00 | 67 | 944.0 |
| 20260905002448 | 63 | 292 | 0.0 | 0.0 | 0.00 | 0.00 | 0.00 | 67 | 944.0 |
| 20260905001915 | 63 | 292 | 0.0 | 0.0 | 0.00 | 0.00 | 0.00 | 67 | 944.0 |
| 20260905001440 | 63 | 292 | 0.0 | 0.0 | 0.00 | 0.00 | 0.00 | 67 | 944.0 |
| 20260905000917 | 63 | 292 | 0.0 | 0.0 | 0.00 | 0.00 | 0.00 | 67 | 944.0 |
| 20260905000424 | 63 | 292 | 0.0 | 0.0 | 0.00 | 0.00 | 0.00 | 67 | 944.0 |
| 20260904235923 | 63 | 292 | 0.0 | 0.0 | 0.00 | 0.00 | 0.00 | 67 | 944.0 |
| 20260904235421 | 63 | 292 | 0.0 | 0.0 | 0.00 | 0.00 | 0.00 | 68 | 944.0 |
| 20260904234916 | 63 | 292 | 0.0 | 0.0 | 0.00 | 0.00 | 0.00 | 67 | 944.0 |
| 20260904234416 | 63 | 292 | 0.0 | 0.0 | 0.00 | 0.00 | 0.00 | 67 | 944.0 |
| 20260904233939 | 64 | 292 | 0.0 | 0.0 | 0.00 | 0.00 | 0.00 | 66 | 944.0 |
| 20260904233438 | 64 | 292 | 0.0 | 0.0 | 0.00 | 0.00 | 0.00 | 66 | 944.0 |
| 20260904232935 | 64 | 292 | 0.0 | 0.0 | 0.00 | 0.00 | 0.00 | 65 | 944.0 |
| 20260904232415 | 64 | 292 | 0.0 | 0.0 | 0.00 | 0.00 | 0.00 | 65 | 944.0 |
| 20260904231920 | 64 | 292 | 0.0 | 0.0 | 0.00 | 0.00 | 0.00 | 65 | 944.0 |
| 20260904231415 | 64 | 292 | 0.0 | 0.0 | 0.00 | 0.00 | 0.00 | 65 | 944.0 |
| 20260904230952 | 64 | 292 | 0.0 | 0.0 | 0.00 | 0.00 | 0.00 | 66 | 944.0 |
| 20260904230416 | 64 | 292 | 0.0 | 0.0 | 0.00 | 0.00 | 0.00 | 66 | 944.0 |
| 20260904225916 | 65 | 0 | 0.0 | 0.0 | 0.00 | 0.00 | 0.00 | 66 | 944.0 |
| 20260904225429 | 64 | 292 | 0.0 | 0.0 | 0.00 | 0.00 | 0.00 | 66 | 944.0 |
| 20260904224916 | 64 | 292 | 0.0 | 0.0 | 0.00 | 0.00 | 0.00 | 66 | 944.0 |
| 20260904224502 | 64 | 292 | 0.0 | 0.0 | 0.00 | 0.00 | 0.00 | 66 | 944.0 |
| 20260904223917 | 64 | 292 | 0.0 | 0.0 | 0.00 | 0.00 | 0.00 | 67 | 945.0 |
| 20260904223416 | 64 | 292 | 0.0 | 0.0 | 0.00 | 0.00 | 0.00 | 66 | 944.0 |
| 20260904222941 | 64 | 292 | 0.0 | 0.0 | 0.00 | 0.00 | 0.00 | 66 | 944.0 |
| 20260904222415 | 64 | 292 | 0.0 | 0.0 | 0.00 | 0.00 | 0.00 | 66 | 944.0 |
| 20260904222014 | 64 | 292 | 0.0 | 0.0 | 0.00 | 0.00 | 0.00 | 66 | 945.0 |
| 20260904221415 | 64 | 292 | 0.0 | 0.0 | 0.00 | 0.00 | 0.00 | 66 | 945.0 |
| 20260904220920 | 64 | 292 | 0.0 | 0.0 | 0.00 | 0.00 | 0.00 | 66 | 945.0 |
| 20260904220415 | 64 | 292 | 0.0 | 0.0 | 0.00 | 0.00 | 0.00 | 66 | 945.0 |
| 20260904215916 | 64 | 292 | 0.0 | 0.0 | 0.00 | 0.00 | 0.00 | 66 | 945.0 |
| 20260904215416 | 65 | 292 | 0.0 | 0.0 | 0.00 | 0.00 | 0.00 | 66 | 945.0 |
| 20260904214916 | 65 | 292 | 0.0 | 0.0 | 0.00 | 0.00 | 0.00 | 65 | 945.0 |
| 20260904214430 | 65 | 292 | 0.0 | 0.0 | 0.00 | 0.00 | 0.00 | 66 | 945.0 |
| 20260904213916 | 65 | 292 | 0.0 | 0.0 | 0.00 | 0.00 | 0.00 | 65 | 945.0 |
| 20260904213415 | 65 | 292 | 0.0 | 0.0 | 0.00 | 0.00 | 0.00 | 65 | 945.0 |
| 20260904212916 | 65 | 292 | 0.0 | 0.0 | 0.00 | 0.00 | 0.00 | 65 | 945.0 |
| 20260904212416 | 65 | 292 | 0.0 | 0.0 | 0.00 | 0.00 | 0.00 | 65 | 945.0 |
| 20260904211942 | 65 | 292 | 0.0 | 0.0 | 0.00 | 0.00 | 0.00 | 65 | 945.0 |
| 20260904211416 | 65 | 292 | 0.0 | 0.0 | 0.00 | 0.00 | 0.00 | 65 | 945.0 |
| 20260904210926 | 65 | 292 | 0.0 | 0.0 | 0.00 | 0.00 | 0.00 | 65 | 945.0 |
| 20260904210416 | 65 | 292 | 0.0 | 0.0 | 0.00 | 0.00 | 0.00 | 64 | 945.0 |
| 20260904205919 | 65 | 292 | 0.0 | 0.0 | 0.00 | 0.00 | 0.00 | 64 | 945.0 |
| 20260904205416 | 65 | 292 | 0.0 | 0.0 | 0.00 | 0.00 | 0.00 | 64 | 945.0 |
| 20260904204915 | 65 | 292 | 0.0 | 0.0 | 0.00 | 0.00 | 0.00 | 63 | 945.0 |
| 20260904204438 | 66 | 292 | 0.0 | 0.0 | 0.00 | 0.00 | 0.00 | 63 | 945.0 |
| 20260904203916 | 66 | 292 | 0.0 | 0.0 | 0.00 | 0.00 | 0.00 | 62 | 945.0 |
| 20260904203431 | 66 | 292 | 0.0 | 0.0 | 0.00 | 0.00 | 0.00 | 62 | 945.0 |
| 20260904202915 | 67 | 292 | 0.0 | 0.0 | 0.00 | 0.00 | 0.00 | 62 | 945.0 |
| 20260904202415 | 67 | 292 | 0.0 | 0.0 | 0.00 | 0.00 | 0.00 | 62 | 945.0 |
| 20260904201916 | 67 | 292 | 0.0 | 1.0 | 0.00 | 0.00 | 0.00 | 62 | 945.0 |
| 20260904201415 | 67 | 292 | 0.0 | 1.0 | 0.00 | 0.00 | 0.00 | 62 | 945.0 |
| 20260904200915 | 67 | 292 | 0.0 | 1.0 | 0.00 | 0.00 | 0.00 | 61 | 945.0 |
| 20260904200415 | 68 | 292 | 0.0 | 0.0 | 0.00 | 0.00 | 0.00 | 61 | 945.0 |
| 20260904195927 | 68 | 292 | 0.0 | 0.0 | 0.00 | 0.00 | 0.00 | 61 | 945.0 |
| 20260904195415 | 68 | 292 | 0.0 | 0.0 | 0.00 | 0.00 | 0.00 | 61 | 945.0 |
| 20260904194922 | 68 | 292 | 0.0 | 0.0 | 0.00 | 0.00 | 0.00 | 61 | 945.0 |
| 20260904194415 | 68 | 292 | 0.0 | 0.0 | 0.00 | 0.00 | 0.00 | 61 | 945.0 |
| 20260904193916 | 68 | 292 | 0.0 | 0.0 | 0.00 | 0.00 | 0.00 | 61 | 945.0 |
| 20260904193439 | 68 | 292 | 0.0 | 0.0 | 0.00 | 0.00 | 0.00 | 60 | 945.0 |
| 20260904192915 | 68 | 292 | 0.0 | 0.0 | 0.00 | 0.00 | 0.00 | 60 | 945.0 |
| 20260904192432 | 68 | 292 | 0.0 | 0.0 | 0.00 | 0.00 | 0.00 | 60 | 945.0 |
| 20260904191916 | 68 | 292 | 0.0 | 0.0 | 0.00 | 0.00 | 0.00 | 60 | 945.0 |
| 20260904191414 | 69 | 292 | 0.0 | 2.0 | 0.00 | 0.00 | 0.00 | 60 | 945.0 |
| 20260904190915 | 69 | 292 | 0.0 | 2.0 | 0.00 | 0.00 | 0.00 | 60 | 945.0 |
| 20260904190415 | 69 | 292 | 2.0 | 2.0 | 0.00 | 0.00 | 0.00 | 60 | 945.0 |
| 20260904185916 | 69 | 292 | 0.0 | 0.0 | 0.00 | 0.00 | 0.00 | 60 | 945.0 |
| 20260904185415 | 69 | 292 | 0.0 | 0.0 | 0.00 | 0.00 | 0.00 | 60 | 945.0 |
| 20260904184929 | 69 | 292 | 0.0 | 0.0 | 0.00 | 0.00 | 0.00 | 60 | 945.0 |
| 20260904184415 | 69 | 292 | 0.0 | 0.0 | 0.00 | 0.00 | 0.00 | 60 | 945.0 |
| 20260904183916 | 69 | 292 | 0.0 | 0.0 | 0.00 | 0.00 | 0.00 | 60 | 945.0 |
| 20260904183415 | 69 | 292 | 0.0 | 0.0 | 0.00 | 0.00 | 0.00 | 60 | 945.0 |
| 20260904182915 | 69 | 292 | 0.0 | 0.0 | 0.00 | 0.00 | 0.00 | 60 | 945.0 |
| 20260904182439 | 69 | 292 | 0.0 | 0.0 | 0.00 | 0.00 | 0.00 | 60 | 945.0 |
| 20260904181915 | 69 | 292 | 0.0 | 0.0 | 0.00 | 0.00 | 0.00 | 60 | 945.0 |
| 20260904181424 | 69 | 292 | 0.0 | 0.0 | 0.00 | 0.00 | 0.00 | 60 | 945.0 |
| 20260904180916 | 69 | 292 | 0.0 | 0.0 | 0.00 | 0.00 | 0.00 | 60 | 945.0 |
| 20260904180417 | 69 | 292 | 0.0 | 0.0 | 0.00 | 0.00 | 0.00 | 60 | 945.0 |
| 20260904175915 | 70 | 292 | 0.0 | 0.0 | 0.00 | 0.00 | 0.00 | 60 | 945.0 |
| 20260904175415 | 70 | 292 | 0.0 | 0.0 | 0.00 | 0.00 | 0.00 | 59 | 945.0 |
| 20260904174935 | 70 | 292 | 0.0 | 0.0 | 0.00 | 0.00 | 0.00 | 59 | 945.0 |
| 20260904174416 | 71 | 292 | 0.0 | 0.0 | 0.00 | 0.00 | 0.00 | 59 | 945.0 |
| 20260904173926 | 71 | 292 | 0.0 | 0.0 | 0.00 | 0.00 | 0.00 | 60 | 945.0 |
| 20260904173414 | 71 | 292 | 0.0 | 0.0 | 0.00 | 0.00 | 0.00 | 59 | 944.0 |
| 20260904172915 | 71 | 292 | 0.0 | 0.0 | 0.00 | 0.00 | 0.00 | 59 | 945.0 |
| 20260904172416 | 71 | 292 | 0.0 | 0.0 | 0.00 | 0.00 | 0.00 | 59 | 945.0 |
| 20260904171915 | 72 | 292 | 0.0 | 0.0 | 0.00 | 0.00 | 0.00 | 59 | 945.0 |
| 20260904171423 | 72 | 292 | 0.0 | 0.0 | 0.00 | 0.00 | 0.00 | 59 | 945.0 |
| 20260904170916 | 72 | 292 | 0.0 | 0.0 | 0.00 | 0.00 | 0.00 | 59 | 945.0 |
| 20260904170415 | 72 | 292 | 0.0 | 0.0 | 0.00 | 0.00 | 0.00 | 59 | 945.0 |
| 20260904165941 | 72 | 292 | 0.0 | 0.0 | 0.00 | 0.00 | 0.00 | 59 | 945.0 |
| 20260904165414 | 72 | 292 | 0.0 | 0.0 | 0.00 | 0.00 | 0.00 | 59 | 945.0 |
| 20260904164937 | 73 | 292 | 0.0 | 0.0 | 0.00 | 0.00 | 0.00 | 59 | 945.0 |
| 20260904164415 | 73 | 292 | 0.0 | 0.0 | 0.00 | 0.00 | 0.00 | 59 | 944.0 |
| 20260904163918 | 73 | 292 | 0.0 | 0.0 | 0.00 | 0.00 | 0.00 | 59 | 945.0 |
| 20260904163416 | 73 | 292 | 0.0 | 0.0 | 0.00 | 0.00 | 0.00 | 59 | 944.0 |
| 20260904162914 | 73 | 292 | 0.0 | 0.0 | 0.00 | 0.00 | 0.00 | 59 | 944.0 |
| 20260904162416 | 73 | 315 | 0.0 | 0.0 | 0.00 | 0.00 | 0.00 | 58 | 945.0 |
| 20260904161914 | 74 | 315 | 0.0 | 0.0 | 0.00 | 0.00 | 0.00 | 58 | 945.0 |
| 20260904161429 | 74 | 315 | 0.0 | 0.0 | 0.00 | 0.00 | 0.00 | 58 | 945.0 |
| 20260904160915 | 74 | 315 | 0.0 | 0.0 | 0.00 | 0.00 | 0.00 | 58 | 945.0 |
| 20260904160424 | 74 | 338 | 0.0 | 0.0 | 0.00 | 0.00 | 0.00 | 58 | 945.0 |
| 20260904155916 | 74 | 338 | 0.0 | 0.0 | 0.00 | 0.00 | 0.00 | 57 | 944.0 |
| 20260904155415 | 74 | 338 | 0.0 | 0.0 | 0.00 | 0.00 | 0.00 | 57 | 944.0 |
| 20260904154942 | 74 | 338 | 0.0 | 0.0 | 0.00 | 0.00 | 0.00 | 57 | 945.0 |
| 20260904154414 | 74 | 338 | 0.0 | 0.0 | 0.00 | 0.00 | 0.00 | 57 | 945.0 |
| 20260904153937 | 74 | 338 | 0.0 | 0.0 | 0.00 | 0.00 | 0.00 | 57 | 945.0 |
| 20260904153416 | 74 | 338 | 0.0 | 0.0 | 0.00 | 0.00 | 0.00 | 56 | 945.0 |
| 20260904152922 | 74 | 338 | 0.0 | 0.0 | 0.00 | 0.00 | 0.00 | 56 | 945.0 |
| 20260904152415 | 74 | 338 | 0.0 | 0.0 | 0.00 | 0.00 | 0.00 | 56 | 945.0 |
| 20260904151915 | 74 | 338 | 0.0 | 0.0 | 0.00 | 0.00 | 0.00 | 56 | 945.0 |
| 20260904151415 | 74 | 338 | 0.0 | 0.0 | 0.00 | 0.00 | 0.00 | 56 | 945.0 |
| 20260904150915 | 74 | 338 | 0.0 | 0.0 | 0.00 | 0.00 | 0.00 | 56 | 945.0 |
| 20260904150435 | 74 | 338 | 0.0 | 0.0 | 0.00 | 0.00 | 0.00 | 55 | 945.0 |
| 20260904145914 | 74 | 338 | 0.0 | 0.0 | 0.00 | 0.00 | 0.00 | 55 | 945.0 |
| 20260904145418 | 75 | 338 | 0.0 | 0.0 | 0.00 | 0.00 | 0.00 | 55 | 945.0 |
| 20260904144914 | 75 | 338 | 0.0 | 0.0 | 0.00 | 0.00 | 0.00 | 55 | 945.0 |
| 20260904144416 | 75 | 338 | 0.0 | 0.0 | 0.00 | 0.00 | 0.00 | 55 | 945.0 |
| 20260904143914 | 76 | 338 | 0.0 | 0.0 | 0.00 | 0.00 | 0.00 | 55 | 945.0 |
| 20260904143415 | 76 | 338 | 0.0 | 0.0 | 0.00 | 0.00 | 0.00 | 54 | 945.0 |
| 20260904142929 | 77 | 338 | 0.0 | 0.0 | 0.00 | 0.00 | 0.00 | 54 | 945.0 |
| 20260904142415 | 77 | 0 | 0.0 | 0.0 | 0.00 | 0.00 | 0.00 | 54 | 945.0 |
| 20260904141923 | 78 | 338 | 0.0 | 0.0 | 0.00 | 0.00 | 0.00 | 54 | 945.0 |
| 20260904141414 | 78 | 338 | 0.0 | 0.0 | 0.00 | 0.00 | 0.00 | 53 | 945.0 |
| 20260904140915 | 78 | 338 | 0.0 | 0.0 | 0.00 | 0.00 | 0.00 | 53 | 945.0 |
| 20260904140443 | 78 | 315 | 0.0 | 0.0 | 0.00 | 0.00 | 0.00 | 53 | 945.0 |
| 20260904135915 | 78 | 315 | 0.0 | 0.0 | 0.00 | 0.00 | 0.00 | 52 | 945.0 |
| 20260904135437 | 78 | 315 | 0.0 | 0.0 | 0.00 | 0.00 | 0.00 | 53 | 945.0 |
| 20260904134914 | 78 | 315 | 0.0 | 0.0 | 0.00 | 0.00 | 0.00 | 52 | 945.0 |
| 20260904134420 | 78 | 315 | 0.0 | 0.0 | 0.00 | 0.00 | 0.00 | 53 | 945.0 |
| 20260904133920 | 79 | 315 | 0.0 | 0.0 | 0.00 | 0.00 | 0.00 | 52 | 945.0 |
| 20260904133416 | 79 | 315 | 0.0 | 0.0 | 0.00 | 0.00 | 0.00 | 52 | 945.0 |
| 20260904132915 | 79 | 315 | 0.0 | 0.0 | 0.00 | 0.00 | 0.00 | 52 | 945.0 |
| 20260904132415 | 79 | 315 | 0.0 | 0.0 | 0.00 | 0.00 | 0.00 | 51 | 945.0 |
| 20260904131935 | 79 | 315 | 0.0 | 0.0 | 0.00 | 0.00 | 0.00 | 51 | 945.0 |
| 20260904131434 | 80 | 315 | 0.0 | 0.0 | 0.00 | 0.00 | 0.00 | 51 | 945.0 |
| 20260904130929 | 80 | 315 | 0.0 | 0.0 | 0.00 | 0.00 | 0.00 | 51 | 945.0 |
| 20260904130414 | 80 | 315 | 0.0 | 0.0 | 0.00 | 0.00 | 0.00 | 51 | 945.0 |
| 20260904125915 | 80 | 315 | 0.0 | 0.0 | 0.00 | 0.00 | 0.00 | 50 | 945.0 |
| 20260904125416 | 81 | 315 | 0.0 | 0.0 | 0.00 | 0.00 | 0.00 | 50 | 945.0 |
| 20260904124948 | 81 | 270 | 0.0 | 0.0 | 0.00 | 0.00 | 0.00 | 51 | 945.0 |
| 20260904124415 | 80 | 270 | 0.0 | 2.0 | 0.00 | 0.00 | 0.00 | 52 | 945.0 |
| 20260904123914 | 80 | 270 | 0.0 | 2.0 | 0.00 | 0.00 | 0.00 | 53 | 945.0 |
| 20260904123430 | 79 | 292 | 0.0 | 2.0 | 0.00 | 0.00 | 0.00 | 53 | 945.0 |
| 20260904122914 | 78 | 270 | 1.0 | 1.0 | 0.00 | 9.83 | 0.00 | 54 | 945.0 |
| 20260904122503 | 77 | 315 | 0.0 | 0.0 | 0.00 | 0.00 | 0.00 | 53 | 945.0 |
| 20260904121915 | 77 | 315 | 0.0 | 0.0 | 0.00 | 0.00 | 0.00 | 53 | 945.0 |
| 20260904121414 | 77 | 315 | 0.0 | 2.0 | 0.00 | 0.00 | 0.00 | 53 | 945.0 |
| 20260904120914 | 77 | 270 | 0.0 | 4.0 | 0.00 | 0.00 | 0.00 | 53 | 945.0 |
| 20260904120414 | 78 | 270 | 0.0 | 4.0 | 0.00 | 0.00 | 0.00 | 52 | 945.0 |
| 20260904120015 | 78 | 270 | 4.0 | 4.0 | 0.00 | 0.00 | 0.00 | 52 | 945.0 |
| 20260904115415 | 78 | 0 | 0.0 | 0.0 | 0.00 | 0.00 | 0.00 | 51 | 946.0 |
| 20260904114921 | 78 | 0 | 0.0 | 0.0 | 0.00 | 0.00 | 0.00 | 51 | 946.0 |
| 20260904114415 | 79 | 0 | 0.0 | 0.0 | 0.00 | 0.00 | 0.00 | 51 | 946.0 |
| 20260904113914 | 79 | 0 | 0.0 | 0.0 | 0.00 | 0.00 | 0.00 | 50 | 946.0 |
| 20260904113415 | 79 | 0 | 0.0 | 0.0 | 0.00 | 0.00 | 0.00 | 50 | 946.0 |
| 20260904112914 | 80 | 0 | 0.0 | 0.0 | 0.00 | 0.00 | 0.00 | 49 | 946.0 |
| 20260904112434 | 80 | 0 | 0.0 | 0.0 | 0.00 | 0.00 | 0.00 | 49 | 946.0 |
| 20260904111914 | 82 | 0 | 0.0 | 0.0 | 0.00 | 0.00 | 0.00 | 48 | 946.0 |
| 20260904111420 | 82 | 0 | 0.0 | 0.0 | 0.00 | 0.00 | 0.00 | 48 | 946.0 |
| 20260904110915 | 83 | 0 | 0.0 | 0.0 | 0.00 | 0.00 | 0.00 | 47 | 946.0 |
| 20260904110416 | 84 | 0 | 0.0 | 0.0 | 0.00 | 0.00 | 0.00 | 46 | 946.0 |
| 20260904105915 | 86 | 0 | 0.0 | 0.0 | 0.00 | 0.00 | 0.00 | 46 | 946.0 |
| 20260904105415 | 86 | 0 | 0.0 | 0.0 | 0.00 | 0.00 | 0.00 | 46 | 946.0 |
| 20260904104937 | 86 | 0 | 0.0 | 0.0 | 0.00 | 0.00 | 0.00 | 46 | 946.0 |
| 20260904104415 | 86 | 0 | 0.0 | 0.0 | 0.00 | 0.00 | 0.00 | 47 | 946.0 |
| 20260904103932 | 86 | 0 | 0.0 | 0.0 | 0.00 | 0.00 | 0.00 | 47 | 946.0 |
| 20260904103415 | 85 | 0 | 0.0 | 0.0 | 0.00 | 0.00 | 0.00 | 47 | 946.0 |
| 20260904102916 | 85 | 0 | 0.0 | 0.0 | 0.00 | 0.00 | 0.00 | 47 | 946.0 |
| 20260904102415 | 85 | 0 | 0.0 | 0.0 | 0.00 | 0.00 | 0.00 | 48 | 946.0 |
| 20260904101914 | 85 | 338 | 0.0 | 0.0 | 0.00 | 0.00 | 0.00 | 49 | 946.0 |
| 20260904101414 | 84 | 338 | 0.0 | 0.0 | 0.00 | 0.00 | 0.00 | 49 | 946.0 |
| 20260904100913 | 84 | 338 | 0.0 | 0.0 | 0.00 | 0.00 | 0.00 | 49 | 946.0 |
| 20260904100429 | 84 | 338 | 0.0 | 0.0 | 0.00 | 0.00 | 0.00 | 49 | 946.0 |
| 20260904095915 | 84 | 338 | 0.0 | 0.0 | 0.00 | 0.00 | 0.00 | 50 | 946.0 |
| 20260904095422 | 84 | 338 | 0.0 | 0.0 | 0.00 | 0.00 | 0.00 | 50 | 946.0 |
| 20260904094914 | 83 | 338 | 0.0 | 0.0 | 0.00 | 0.00 | 0.00 | 51 | 946.0 |
| 20260904094415 | 83 | 338 | 0.0 | 0.0 | 0.00 | 0.00 | 0.00 | 50 | 946.0 |
| 20260904093914 | 83 | 338 | 0.0 | 0.0 | 0.00 | 0.00 | 0.00 | 52 | 946.0 |
| 20260904093415 | 83 | 0 | 0.0 | 0.0 | 0.00 | 0.00 | 0.00 | 53 | 946.0 |
| 20260904092937 | 83 | 338 | 0.0 | 0.0 | 0.00 | 0.00 | 0.00 | 53 | 947.0 |
| 20260904092415 | 82 | 338 | 0.0 | 0.0 | 0.00 | 0.00 | 0.00 | 54 | 947.0 |
| 20260904091922 | 82 | 338 | 0.0 | 0.0 | 0.00 | 0.00 | 0.00 | 55 | 947.0 |
| 20260904091414 | 81 | 338 | 0.0 | 0.0 | 0.00 | 0.00 | 0.00 | 55 | 947.0 |
| 20260904090914 | 81 | 338 | 0.0 | 0.0 | 0.00 | 0.00 | 0.00 | 56 | 947.0 |
| 20260904090414 | 80 | 338 | 0.0 | 0.0 | 0.00 | 0.00 | 0.00 | 56 | 947.0 |
| 20260904085914 | 80 | 338 | 0.0 | 0.0 | 0.00 | 0.00 | 0.00 | 58 | 947.0 |
| 20260904085435 | 80 | 338 | 0.0 | 0.0 | 0.00 | 9.83 | 0.00 | 58 | 947.0 |
| 20260904084913 | 79 | 338 | 0.0 | 0.0 | 0.00 | 0.00 | 0.00 | 60 | 947.0 |
| 20260904084420 | 79 | 338 | 0.0 | 0.0 | 0.00 | 0.00 | 0.00 | 60 | 947.0 |
| 20260904083913 | 78 | 338 | 0.0 | 0.0 | 0.00 | 0.00 | 0.00 | 61 | 947.0 |
| 20260904083413 | 78 | 338 | 0.0 | 0.0 | 0.00 | 0.00 | 0.00 | 63 | 947.0 |
| 20260904082915 | 77 | 338 | 0.0 | 0.0 | 0.00 | 0.00 | 0.00 | 64 | 947.0 |
| 20260904082414 | 76 | 338 | 0.0 | 0.0 | 0.00 | 0.00 | 0.00 | 65 | 947.0 |
| 20260904081933 | 76 | 338 | 0.0 | 0.0 | 0.00 | 0.00 | 0.00 | 66 | 947.0 |
| 20260904081413 | 75 | 338 | 0.0 | 0.0 | 0.00 | 0.00 | 0.00 | 66 | 947.0 |
| 20260904080926 | 74 | 338 | 0.0 | 0.0 | 0.00 | 0.00 | 0.00 | 67 | 947.0 |
| 20260904080414 | 74 | 338 | 0.0 | 0.0 | 0.00 | 0.00 | 0.00 | 69 | 947.0 |
| 20260904075915 | 74 | 338 | 0.0 | 0.0 | 0.00 | 0.00 | 0.00 | 69 | 947.0 |
| 20260904075413 | 73 | 338 | 0.0 | 0.0 | 0.00 | 0.00 | 0.00 | 70 | 947.0 |
| 20260904074914 | 73 | 338 | 0.0 | 0.0 | 0.00 | 0.00 | 0.00 | 71 | 947.0 |
| 20260904074441 | 73 | 338 | 0.0 | 0.0 | 0.00 | 0.00 | 0.00 | 72 | 947.0 |